Location: Newark
(50.0306°N, 2.3272°E)
Time: 22:44:35
(UTC+00:00)

A-11 Canister half - Pass Details

Date: 16 December 2019
Orbit: 1525 x 1684 km, 47.3° (Epoch: 19 January)

Event Time Altitude Azimuth Distance (km) Brightness Sun altitude
Rises 02:51:27 0° 195° (SSW) 4,864 - -45.3°
Reaches altitude 10° 02:55:14 10° 184° (S) 3,900 - -44.7°
Exits shadow 03:00:36 24° 153° (SSE) 2,966 10.5 -43.9°
Maximum altitude 03:02:58 26° 133° (SE) 2,856 10.5 -43.5°
Drops below altitude 10° 03:10:46 10° 82° (E) 3,951 11.8 -42.3°
Sets 03:14:36 0° 71° (ENE) 4,940 12.5 -41.7°
